Time,TemperatureF,DewpointF,PressureIn,WindDirection,WindDirectionDegrees,WindSpeedMPH,WindSpeedGustMPH,Humidity,HourlyPrecipIn,Conditions,Clouds,dailyrainin,SoftwareType,DateUTC
2013-02-25 00:10:00,36.9,32.0,30.40,NW,314,0.0,-999.0,81,-99.99,,,0.00,weatherlink.com 1.10,2013-02-25 00:10:00,
2013-02-25 00:25:00,36.6,32.0,30.40,NW,314,0.0,-999.0,82,-99.99,,,0.00,weatherlink.com 1.10,2013-02-25 00:25:00,
2013-02-25 00:40:00,36.2,32.0,30.40,NW,304,0.0,-999.0,83,-99.99,,,0.00,weatherlink.com 1.10,2013-02-25 00:40:00,
2013-02-25 00:55:00,35.9,32.0,30.40,WNW,285,0.0,-999.0,84,-99.99,,,0.00,weatherlink.com 1.10,2013-02-25 00:55:00,
2013-02-25 01:10:00,35.7,31.0,30.40,West,279,0.0,-999.0,84,-99.99,,,0.00,weatherlink.com 1.10,2013-02-25 01:10:00,
2013-02-25 01:25:00,35.5,31.0,30.41,West,275,0.0,-999.0,83,-99.99,,,0.00,weatherlink.com 1.10,2013-02-25 01:25:00,
2013-02-25 01:40:00,35.3,31.0,30.41,West,265,0.0,-999.0,84,-99.99,,,0.00,weatherlink.com 1.10,2013-02-25 01:40:00,
2013-02-25 01:55:00,35.2,31.0,30.41,West,265,0.0,-999.0,83,-99.99,,,0.00,weatherlink.com 1.10,2013-02-25 01:55:00,
2013-02-25 02:10:00,35.3,31.0,30.41,West,273,0.0,-999.0,83,-99.99,,,0.00,weatherlink.com 1.10,2013-02-25 02:10:00,
2013-02-25 02:25:00,35.3,31.0,30.41,WSW,243,0.0,-999.0,83,-99.99,,,0.00,weatherlink.com 1.10,2013-02-25 02:25:00,
2013-02-25 02:40:00,35.0,30.0,30.42,West,270,0.0,-999.0,83,-99.99,,,0.00,weatherlink.com 1.10,2013-02-25 02:40:00,
2013-02-25 02:55:00,34.7,30.0,30.41,West,269,0.0,-999.0,83,-99.99,,,0.00,weatherlink.com 1.10,2013-02-25 02:55:00,
2013-02-25 03:10:00,34.4,30.0,30.41,West,271,0.0,-999.0,83,-99.99,,,0.00,weatherlink.com 1.10,2013-02-25 03:10:00,
2013-02-25 03:25:00,34.4,30.0,30.41,West,266,0.0,-999.0,84,-99.99,,,0.00,weatherlink.com 1.10,2013-02-25 03:25:00,
2013-02-25 03:41:00,34.4,30.0,30.41,WSW,252,0.0,-999.0,84,-99.99,,,0.00,weatherlink.com 1.10,2013-02-25 03:41:00,
2013-02-25 03:55:00,34.6,30.0,30.42,WSW,252,0.0,-999.0,84,-99.99,,,0.00,weatherlink.com 1.10,2013-02-25 03:55:00,
2013-02-25 04:10:00,34.9,31.0,30.42,WSW,252,0.0,-999.0,84,-99.99,,,0.00,weatherlink.com 1.10,2013-02-25 04:10:00,
2013-02-25 04:25:00,35.0,31.0,30.42,WSW,252,0.0,-999.0,84,-99.99,,,0.00,weatherlink.com 1.10,2013-02-25 04:25:00,
2013-02-25 04:40:00,35.1,31.0,30.42,WSW,252,0.0,-999.0,84,-99.99,,,0.00,weatherlink.com 1.10,2013-02-25 04:40:00,
2013-02-25 04:55:00,35.1,31.0,30.43,WSW,252,0.0,-999.0,85,-99.99,,,0.00,weatherlink.com 1.10,2013-02-25 04:55:00,
2013-02-25 05:10:00,35.2,31.0,30.43,WSW,252,0.0,-999.0,85,-99.99,,,0.00,weatherlink.com 1.10,2013-02-25 05:10:00,
2013-02-25 05:25:00,35.0,31.0,30.43,WSW,252,0.0,-999.0,86,-99.99,,,0.00,weatherlink.com 1.10,2013-02-25 05:25:00,
2013-02-25 05:40:00,34.8,31.0,30.43,WSW,253,0.0,-999.0,87,-99.99,,,0.00,weatherlink.com 1.10,2013-02-25 05:40:00,
2013-02-25 05:55:00,34.6,31.0,30.43,WSW,255,0.0,-999.0,87,-99.99,,,0.00,weatherlink.com 1.10,2013-02-25 05:55:00,
2013-02-25 06:10:00,34.5,31.0,30.44,West,259,0.0,-999.0,87,-99.99,,,0.00,weatherlink.com 1.10,2013-02-25 06:10:00,
2013-02-25 06:25:00,34.4,31.0,30.44,West,259,0.0,-999.0,87,-99.99,,,0.00,weatherlink.com 1.10,2013-02-25 06:25:00,
2013-02-25 06:40:00,34.2,31.0,30.45,West,259,0.0,-999.0,87,-99.99,,,0.00,weatherlink.com 1.10,2013-02-25 06:40:00,
2013-02-25 06:55:00,-999.0,-99.9,30.45,North,-999,-999.0,-999.0,-999,-99.99,,,0.00,weatherlink.com 1.10,2013-02-25 06:55:00,
2013-02-25 07:10:00,-999.0,-99.9,30.45,North,-999,-999.0,-999.0,-999,-99.99,,,0.00,weatherlink.com 1.10,2013-02-25 07:10:00,
2013-02-25 07:25:00,-999.0,-99.9,30.46,North,-999,-999.0,-999.0,-999,-99.99,,,0.00,weatherlink.com 1.10,2013-02-25 07:25:00,
2013-02-25 07:40:00,-999.0,-99.9,30.45,North,-999,-999.0,-999.0,-999,-99.99,,,0.00,weatherlink.com 1.10,2013-02-25 07:40:00,
2013-02-25 07:55:00,33.3,30.0,30.46,West,263,0.0,-999.0,89,-99.99,,,0.00,weatherlink.com 1.10,2013-02-25 07:55:00,
2013-02-25 08:10:00,33.6,31.0,30.46,West,263,0.0,-999.0,89,-99.99,,,0.00,weatherlink.com 1.10,2013-02-25 08:10:00,
2013-02-25 08:25:00,34.4,32.0,30.46,West,263,0.0,-999.0,89,-99.99,,,0.00,weatherlink.com 1.10,2013-02-25 08:25:00,
2013-02-25 08:40:00,35.2,32.0,30.47,West,263,0.0,-999.0,88,-99.99,,,0.00,weatherlink.com 1.10,2013-02-25 08:40:00,
2013-02-25 08:55:00,35.3,32.0,30.47,West,263,0.0,-999.0,88,-99.99,,,0.00,weatherlink.com 1.10,2013-02-25 08:55:00,
2013-02-25 09:10:00,35.7,32.0,30.47,West,263,0.0,-999.0,87,-99.99,,,0.00,weatherlink.com 1.10,2013-02-25 09:10:00,
2013-02-25 09:25:00,36.8,33.0,30.47,West,263,0.0,-999.0,87,-99.99,,,0.00,weatherlink.com 1.10,2013-02-25 09:25:00,
2013-02-25 09:40:00,37.8,33.0,30.48,West,263,0.0,-999.0,84,-99.99,,,0.00,weatherlink.com 1.10,2013-02-25 09:40:00,
2013-02-25 09:56:00,38.2,34.0,30.48,West,263,0.0,-999.0,83,-99.99,,,0.00,weatherlink.com 1.10,2013-02-25 09:56:00,
2013-02-25 10:11:00,39.8,35.0,30.48,West,263,0.0,-999.0,83,-99.99,,,0.00,weatherlink.com 1.10,2013-02-25 10:11:00,
2013-02-25 10:26:00,41.3,35.0,30.48,West,263,0.0,-999.0,77,-99.99,,,0.00,weatherlink.com 1.10,2013-02-25 10:26:00,
2013-02-25 10:41:00,42.0,35.0,30.48,West,263,0.0,-999.0,75,-99.99,,,0.00,weatherlink.com 1.10,2013-02-25 10:41:00,
2013-02-25 10:56:00,42.2,34.0,30.49,SE,125,0.0,-999.0,73,-99.99,,,0.00,weatherlink.com 1.10,2013-02-25 10:56:00,
2013-02-25 11:11:00,42.2,34.0,30.49,ENE,76,0.0,-999.0,73,-99.99,,,0.00,weatherlink.com 1.10,2013-02-25 11:11:00,
2013-02-25 11:26:00,42.5,34.0,30.49,East,96,0.0,-999.0,71,-99.99,,,0.00,weatherlink.com 1.10,2013-02-25 11:26:00,
2013-02-25 11:41:00,43.5,34.0,30.49,ESE,120,0.0,-999.0,70,-99.99,,,0.00,weatherlink.com 1.10,2013-02-25 11:41:00,
2013-02-25 11:56:00,45.0,35.0,30.49,ESE,115,0.0,-999.0,67,-99.99,,,0.00,weatherlink.com 1.10,2013-02-25 11:56:00,
2013-02-25 12:11:00,45.2,35.0,30.49,ESE,122,0.0,-999.0,67,-99.99,,,0.00,weatherlink.com 1.10,2013-02-25 12:11:00,
2013-02-25 12:26:00,45.6,35.0,30.49,ESE,113,0.0,-999.0,66,-99.99,,,0.00,weatherlink.com 1.10,2013-02-25 12:26:00,
2013-02-25 12:41:00,46.3,34.0,30.49,ESE,113,0.0,-999.0,63,-99.99,,,0.00,weatherlink.com 1.10,2013-02-25 12:41:00,
2013-02-25 12:56:00,47.3,34.0,30.49,ESE,112,0.0,-999.0,61,-99.99,,,0.00,weatherlink.com 1.10,2013-02-25 12:56:00,
2013-02-25 13:11:00,47.2,34.0,30.49,ESE,117,0.0,-999.0,61,-99.99,,,0.00,weatherlink.com 1.10,2013-02-25 13:11:00,
2013-02-25 13:26:00,46.7,34.0,30.48,SE,125,0.0,-999.0,62,-99.99,,,0.00,weatherlink.com 1.10,2013-02-25 13:26:00,
2013-02-25 13:41:00,46.3,34.0,30.48,ENE,61,0.0,-999.0,63,-99.99,,,0.00,weatherlink.com 1.10,2013-02-25 13:41:00,
2013-02-25 13:56:00,47.1,35.0,30.48,ESE,121,0.0,-999.0,63,-99.99,,,0.00,weatherlink.com 1.10,2013-02-25 13:56:00,
2013-02-25 14:11:00,47.7,35.0,30.48,East,99,0.0,-999.0,62,-99.99,,,0.00,weatherlink.com 1.10,2013-02-25 14:11:00,
2013-02-25 14:26:00,48.0,34.0,30.48,SE,124,0.0,-999.0,59,-99.99,,,0.00,weatherlink.com 1.10,2013-02-25 14:26:00,
2013-02-25 14:41:00,48.0,34.0,30.48,ESE,112,0.0,-999.0,59,-99.99,,,0.00,weatherlink.com 1.10,2013-02-25 14:41:00,
2013-02-25 14:56:00,47.6,34.0,30.48,East,88,0.0,-999.0,60,-99.99,,,0.00,weatherlink.com 1.10,2013-02-25 14:56:00,
2013-02-25 15:11:00,46.7,35.0,30.48,East,92,0.0,-999.0,63,-99.99,,,0.00,weatherlink.com 1.10,2013-02-25 15:11:00,
2013-02-25 15:26:00,46.6,34.0,30.48,ESE,104,0.0,-999.0,61,-99.99,,,0.00,weatherlink.com 1.10,2013-02-25 15:26:00,
2013-02-25 15:41:00,45.8,32.0,30.48,ENE,67,0.0,-999.0,60,-99.99,,,0.00,weatherlink.com 1.10,2013-02-25 15:41:00,
2013-02-25 15:56:00,46.4,33.0,30.48,ESE,110,0.0,-999.0,60,-99.99,,,0.00,weatherlink.com 1.10,2013-02-25 15:56:00,
2013-02-25 16:11:00,46.0,33.0,30.48,NE,54,0.0,-999.0,61,-99.99,,,0.00,weatherlink.com 1.10,2013-02-25 16:11:00,
2013-02-25 16:26:00,45.1,33.0,30.48,NNE,23,0.0,-999.0,63,-99.99,,,0.00,weatherlink.com 1.10,2013-02-25 16:26:00,
2013-02-25 16:41:00,44.9,33.0,30.49,ENE,77,0.0,-999.0,63,-99.99,,,0.00,weatherlink.com 1.10,2013-02-25 16:41:00,
2013-02-25 16:56:00,44.6,33.0,30.48,NE,49,0.0,-999.0,63,-99.99,,,0.00,weatherlink.com 1.10,2013-02-25 16:56:00,
2013-02-25 17:11:00,44.0,34.0,30.49,ENE,67,0.0,-999.0,67,-99.99,,,0.00,weatherlink.com 1.10,2013-02-25 17:11:00,
2013-02-25 17:26:00,43.6,34.0,30.49,ENE,70,0.0,-999.0,70,-99.99,,,0.00,weatherlink.com 1.10,2013-02-25 17:26:00,
2013-02-25 17:41:00,43.0,35.0,30.48,ESE,110,0.0,-999.0,72,-99.99,,,0.00,weatherlink.com 1.10,2013-02-25 17:41:00,
2013-02-25 17:56:00,42.5,34.0,30.49,ENE,57,0.0,-999.0,72,-99.99,,,0.00,weatherlink.com 1.10,2013-02-25 17:56:00,
2013-02-25 18:11:00,42.2,34.0,30.49,ENE,71,0.0,-999.0,73,-99.99,,,0.00,weatherlink.com 1.10,2013-02-25 18:11:00,
2013-02-25 18:26:00,42.0,34.0,30.50,ENE,77,0.0,-999.0,74,-99.99,,,0.00,weatherlink.com 1.10,2013-02-25 18:26:00,
2013-02-25 18:41:00,41.8,34.0,30.50,East,82,0.0,-999.0,75,-99.99,,,0.00,weatherlink.com 1.10,2013-02-25 18:41:00,
2013-02-25 18:56:00,41.6,35.0,30.49,East,82,0.0,-999.0,76,-99.99,,,0.00,weatherlink.com 1.10,2013-02-25 18:56:00,
2013-02-25 19:11:00,41.3,34.0,30.50,East,84,0.0,-999.0,76,-99.99,,,0.00,weatherlink.com 1.10,2013-02-25 19:11:00,
2013-02-25 19:26:00,41.1,34.0,30.50,East,84,0.0,-999.0,77,-99.99,,,0.00,weatherlink.com 1.10,2013-02-25 19:26:00,
2013-02-25 19:41:00,41.0,35.0,30.50,East,82,0.0,-999.0,78,-99.99,,,0.00,weatherlink.com 1.10,2013-02-25 19:41:00,
2013-02-25 19:56:00,40.9,35.0,30.50,East,82,0.0,-999.0,78,-99.99,,,0.00,weatherlink.com 1.10,2013-02-25 19:56:00,
2013-02-25 20:11:00,40.7,35.0,30.50,East,82,0.0,-999.0,79,-99.99,,,0.00,weatherlink.com 1.10,2013-02-25 20:11:00,
2013-02-25 20:26:00,40.4,35.0,30.51,ENE,77,0.0,-999.0,80,-99.99,,,0.00,weatherlink.com 1.10,2013-02-25 20:26:00,
2013-02-25 20:41:00,39.8,34.0,30.51,ENE,77,0.0,-999.0,81,-99.99,,,0.00,weatherlink.com 1.10,2013-02-25 20:41:00,
2013-02-25 20:56:00,39.5,34.0,30.52,ENE,77,0.0,-999.0,81,-99.99,,,0.00,weatherlink.com 1.10,2013-02-25 20:56:00,
2013-02-25 21:11:00,38.8,34.0,30.52,ENE,77,0.0,-999.0,82,-99.99,,,0.00,weatherlink.com 1.10,2013-02-25 21:11:00,
2013-02-25 21:26:00,38.7,34.0,30.51,South,185,0.0,-999.0,84,-99.99,,,0.00,weatherlink.com 1.10,2013-02-25 21:26:00,
2013-02-25 21:41:00,38.9,35.0,30.51,South,173,0.0,-999.0,84,-99.99,,,0.00,weatherlink.com 1.10,2013-02-25 21:41:00,
2013-02-25 21:56:00,38.8,34.0,30.52,South,173,0.0,-999.0,84,-99.99,,,0.00,weatherlink.com 1.10,2013-02-25 21:56:00,
2013-02-25 22:12:00,38.6,35.0,30.52,South,174,0.0,-999.0,85,-99.99,,,0.00,weatherlink.com 1.10,2013-02-25 22:12:00,
2013-02-25 22:27:00,38.5,34.0,30.51,South,175,0.0,-999.0,85,-99.99,,,0.00,weatherlink.com 1.10,2013-02-25 22:27:00,
2013-02-25 22:42:00,38.3,35.0,30.52,South,175,0.0,-999.0,86,-99.99,,,0.00,weatherlink.com 1.10,2013-02-25 22:42:00,
2013-02-25 22:57:00,38.2,34.0,30.51,South,175,0.0,-999.0,86,-99.99,,,0.00,weatherlink.com 1.10,2013-02-25 22:57:00,
2013-02-25 23:12:00,38.0,35.0,30.51,South,175,0.0,-999.0,87,-99.99,,,0.00,weatherlink.com 1.10,2013-02-25 23:12:00,
2013-02-25 23:27:00,37.9,34.0,30.51,South,175,0.0,-999.0,87,-99.99,,,0.00,weatherlink.com 1.10,2013-02-25 23:27:00,
2013-02-25 23:42:00,38.2,35.0,30.51,SSE,153,0.0,-999.0,87,-99.99,,,0.00,weatherlink.com 1.10,2013-02-25 23:42:00,
2013-02-25 23:57:00,37.9,34.0,30.50,SSE,153,0.0,-999.0,87,-99.99,,,0.00,weatherlink.com 1.10,2013-02-25 23:57:00,